This is the latest recevied weather packets stored in our database for station/object EW1958. If no packets are shown the sender has not sent any weather packets the latest 10 day(s).
| Time | Temp. | Humidity | Pressure | Rain* | Wind** | Luminosity | Snow |
|---|---|---|---|---|---|---|---|
| 1777913487 | 20.56° C | 59% | 1013.6 hPa | 0 mm | - | - | - |
| 1777913187 | 20° C | 62% | 1013.6 hPa | 0 mm | - | - | - |
| 1777913033 | 19.44° C | 63% | 1013.6 hPa | 0 mm | - | - | - |
| 1777912594 | 17.78° C | 65% | 1013.6 hPa | 0 mm | - | - | - |
| 1777912584 | 18.89° C | 65% | 1013.6 hPa | 0 mm | - | - | - |
| 1777911985 | 17.22° C | 68% | 1013.5 hPa | 0 mm | - | - | - |
| 1777911682 | 16.67° C | 71% | 1013.5 hPa | 0 mm | - | - | - |
| 1777911382 | 16.11° C | 73% | 1013.5 hPa | 0 mm | - | - | - |
| 1777911082 | 15.56° C | 74% | 1013.5 hPa | 0 mm | - | - | - |
| 1777910782 | 15.56° C | 76% | 1013.5 hPa | 0 mm | - | - | - |
| 1777910483 | 15° C | 77% | 1013.5 hPa | 0 mm | - | - | - |
| 1777910181 | 14.44° C | 78% | 1013.4 hPa | 0 mm | - | - | - |
| 1777909879 | 14.44° C | 81% | 1013.4 hPa | 0 mm | - | - | - |
| 1777909580 | 13.89° C | 85% | 1013.4 hPa | 0 mm | - | - | - |
| 1777909279 | 13.89° C | 89% | 1013.4 hPa | 0 mm | - | - | - |
| 1777908980 | 13.33° C | 87% | 1013.4 hPa | 0 mm | - | - | - |
| 1777908684 | 13.33° C | 92% | 1013.4 hPa | 0 mm | - | - | - |
| 1777908081 | 12.78° C | 95% | 1013.4 hPa | 0 mm | - | - | - |
| 1777907905 | 12.22° C | 95% | 1013.3 hPa | 0 mm | - | - | - |
| 1777907475 | 12.22° C | 95% | 1013.1 hPa | 0 mm | - | - | - |
| 1777907174 | 12.22° C | 95% | 1013.1 hPa | 0 mm | - | - | - |
| 1777906874 | 11.67° C | 95% | 1012.9 hPa | 0 mm | - | - | - |
| 1777906572 | 11.67° C | 95% | 1012.9 hPa | 0 mm | - | - | - |
| 1777906269 | 11.67° C | 95% | 1012.9 hPa | 0 mm | - | - | - |
| 1777905966 | 11.11° C | 95% | 1012.9 hPa | 0 mm | - | - | - |
* Rain latest hour (hover to see other rain measurements)
** Current wind speed in m/s (hover to see current wind gust speed)